Ottumwa, IA

1:56 AM CDT on July 21, 2017 (GMT -0500)
Ottumwa Industrial

Weather History for KOTM - February, 2014

Change the Weather History Date:

Thursday, February 13, 2014

  Actual Average Record
Temperature  
Mean Temperature 29 °F 26 °F  
Max Temperature 44 °F 35 °F 65 °F (1938)
Min Temperature 14 °F 17 °F -7 °F (1960)
Degree Days  
Heating Degree Days 36 39  
Month to date heating degree days 724 524  
Since 1 July heating degree days 4888 4346  
Cooling Degree Days 0 0  
Month to date cooling degree days 0 0  
Year to date cooling degree days 0 0  
Moisture  
Dew Point 19 °F    
Average Humidity 73    
Maximum Humidity 88    
Minimum Humidity 57    
Precipitation  
Precipitation 0.00 in 0.04 in 1.24 in (1978)
Month to date precipitation 0.11 0.46  
Year to date precipitation 0.23 1.36  
Sea Level Pressure  
Sea Level Pressure 29.78 in    
Wind  
Wind Speed 14 mph (WSW)    
Max Wind Speed 24 mph    
Max Gust Speed 30 mph    
Visibility 9 miles    
Events      
T = Trace of Precipitation, MM = Missing Value Source: NWS Daily Summary

Daily Weather History Graph

Daily Weather History Graph

Search for Another Location

Airport or City:

Trip Planner

Search our weather history database for the weather conditions in past years. The results will help you decide how hot, cold, wet, or windy it might be!

Date:

Astronomy

Feb. 13, 2014 Rise Set
Actual Time 7:06 AM CST 5:41 PM CST
Civil Twilight 6:38 AM CST 6:10 PM CST
Nautical Twilight 6:06 AM CST 6:42 PM CST
Astronomical Twilight 5:34 AM CST 7:14 PM CST
Moon 4:50 PM CST (2/13) 6:00 AM CST (2/13)
Length of Visible Light 11h 31m
Length of Day
10h 34m
Waxing Gibbous, 99% of the Moon is Illuminated
Feb 13
Waxing Gibbous
Feb 14
Full
Feb 22
Last Quarter
Mar 1
New
Mar 8
First Quarter

Hourly Weather History & Observations

Time (CST) Temp. Windchill Dew Point Humidity Pressure Visibility Wind Dir Wind Speed Gust Speed Precip Events Conditions
12:53 AM 17.1 °F 7.6 °F 12.9 °F 84% 29.94 in 8.0 mi South 6.9 mph - N/A   Clear
1:53 AM 16.0 °F 5.3 °F 10.9 °F 81% 29.92 in 7.0 mi South 8.1 mph - N/A   Partly Cloudy
2:19 AM 18.0 °F 7.7 °F 12.0 °F 78% 29.88 in 8.0 mi SSW 8.1 mph - N/A   Mostly Cloudy
2:53 AM 17.1 °F 8.7 °F 12.0 °F 81% 29.92 in 8.0 mi SSW 5.8 mph - N/A   Overcast
3:45 AM 19.0 °F 6.8 °F 12.9 °F 77% 29.83 in 9.0 mi South 11.5 mph - N/A   Overcast
3:53 AM 19.0 °F 6.8 °F 12.9 °F 77% 29.87 in 9.0 mi South 11.5 mph - N/A   Overcast
4:53 AM 19.9 °F 9.3 °F 14.0 °F 78% 29.86 in 8.0 mi SSW 9.2 mph - N/A   Overcast
5:51 AM 19.4 °F 8.6 °F 15.8 °F 86% 29.80 in 8.0 mi South 9.2 mph - N/A   Overcast
5:53 AM 19.9 °F 9.3 °F 15.1 °F 81% 29.83 in 8.0 mi South 9.2 mph - N/A   Overcast
6:53 AM 21.9 °F 6.9 °F 17.1 °F 82% 29.78 in 7.0 mi South 19.6 mph - N/A   Mostly Cloudy
7:53 AM 24.1 °F 9.4 °F 19.0 °F 81% 29.76 in 5.0 mi SSW 20.7 mph - N/A   Haze
8:53 AM 26.1 °F 14.5 °F 19.9 °F 78% 29.75 in 5.0 mi SW 13.8 mph - N/A   Haze
9:53 AM 30.0 °F 18.7 °F 23.0 °F 75% 29.74 in 6.0 mi SW 16.1 mph 27.6 mph N/A   Haze
10:53 AM 33.1 °F 22.6 °F 24.1 °F 70% 29.73 in 7.0 mi WSW 16.1 mph - N/A   Clear
11:53 AM 36.0 °F 25.6 °F 26.1 °F 67% 29.70 in 9.0 mi WSW 18.4 mph - N/A   Clear
12:53 PM 39.0 °F 30.3 °F 27.0 °F 62% 29.66 in 10.0 mi WSW 16.1 mph - N/A   Clear
1:53 PM 41.0 °F 32.8 °F 28.0 °F 60% 29.64 in 10.0 mi WSW 16.1 mph - N/A   Clear
2:53 PM 43.0 °F 35.1 °F 28.0 °F 56% 29.64 in 10.0 mi West 17.3 mph 25.3 mph N/A   Clear
3:53 PM 43.0 °F 36.0 °F 28.9 °F 58% 29.66 in 10.0 mi WNW 13.8 mph - N/A   Clear
4:53 PM 39.0 °F 29.6 °F 28.9 °F 67% 29.69 in 10.0 mi NW 18.4 mph - N/A   Clear
5:53 PM 35.1 °F 23.8 °F 27.0 °F 72% 29.72 in 10.0 mi NW 20.7 mph - N/A   Clear
6:53 PM 33.1 °F 21.2 °F 21.9 °F 64% 29.74 in 10.0 mi NW 20.7 mph 31.1 mph N/A   Clear
7:53 PM 28.9 °F 18.6 °F 19.9 °F 69% 29.77 in 10.0 mi NNW 12.7 mph - N/A   Clear
8:53 PM 25.0 °F 12.2 °F 16.0 °F 69% 29.79 in 10.0 mi NW 16.1 mph - N/A   Clear
9:53 PM 23.0 °F 10.1 °F 15.1 °F 72% 29.79 in 10.0 mi NNW 15.0 mph - N/A   Clear
10:53 PM 19.9 °F 9.3 °F 10.9 °F 68% 29.79 in 10.0 mi NNW 9.2 mph - N/A   Clear
11:53 PM 18.0 °F 8.7 °F 10.9 °F 74% 29.78 in 10.0 mi NNW 6.9 mph - N/A   Partly Cloudy